Home > Weather > Fullerton > Past weeks

Flag for USA Past Weather in Fullerton, California, USA — Yesterday and Last 2 Weeks

Now
67 °F

Overcast.


Feels Like: 67 °F
Forecast: 60 / 80 °F
Wind: No wind

Location: Fullerton Municipal Airport

Current Time: Aug 27, 2016 at 6:39:08 AM

Latest Report: Aug 27, 2016 at 5:53 AM


Visibility: 10 mi

Pressure: 29.95 "Hg

Humidity: 71%

Dew Point: 57 °F

Location of FullertonLocation

Past Weather in Fullerton — Graph

°F

Fullerton Temperature Yesterday

Maximum temperature yesterday: 77 °F (at 1:53 PM)
Minimum temperature yesterday: 65 °F (at 6:53 AM)
Average temperature yesterday: 70 °F

High & Low Weather Summary for the Past Weeks

 TemperatureHumidityPressure
High98 °F (Aug 15, 1:53 PM)93% (Aug 17, 6:53 AM)30.03 "Hg (Aug 17, 6:53 AM)
Low61 °F (Aug 17, 6:53 AM)13% (Aug 17, 2:53 PM)29.77 "Hg (Aug 17, 6:53 PM)
Average75 °F60%29.89 "Hg
* Reported Aug 12 4:53 AM — Aug 27 4:53 AM, Fullerton, Weather by CustomWeather, © 2016

Note: Actual official high and low records may vary slightly from our data, if they occured in-between our weather recording intervals... More about our weather records

Advertising

Fullerton Weather History for the Previous 24 Hours

Scroll right to see more
 ConditionsComfort  
Time TempWeatherWind HumidityBarometerVisibility
4:53 AM
Sat, Aug 27
67 °FOvercast.No wind71%29.94 "Hg10 mi
3:53 AM67 °FOvercast.3 mph71%29.94 "Hg10 mi
2:53 AM67 °FOvercast.No wind71%29.94 "Hg10 mi
1:53 AM67 °FOvercast.3 mph71%29.95 "Hg10 mi
12:53 AM67 °FOvercast.No wind73%29.95 "Hg10 mi
12:01 AM66 °FPassing clouds.No wind73%29.96 "Hg10 mi
10:53 PM
Fri, Aug 26
66 °FClear.No wind73%29.95 "Hg10 mi
9:53 PM67 °FClear.No wind71%29.95 "Hg10 mi
8:53 PM68 °FClear.5 mph70%29.94 "Hg10 mi
7:53 PM68 °FSunny.7 mph68%29.92 "Hg10 mi
6:53 PM70 °FSunny.7 mph64%29.91 "Hg10 mi
5:53 PM73 °FSunny.9 mph57%29.91 "Hg10 mi
4:53 PM75 °FSunny.9 mph52%29.90 "Hg10 mi
3:53 PM76 °FSunny.8 mph50%29.91 "Hg10 mi
2:53 PM77 °FSunny.8 mph47%29.92 "Hg10 mi
1:53 PM77 °FSunny.7 mph45%29.94 "Hg10 mi
12:53 PM75 °FSunny.No wind48%29.95 "Hg10 mi
11:53 AM74 °FSunny.No wind52%29.97 "Hg10 mi
10:53 AM70 °FOvercast.No wind59%29.98 "Hg10 mi
9:53 AM69 °FOvercast.6 mph63%29.98 "Hg10 mi
8:53 AM67 °FOvercast.6 mph68%29.96 "Hg10 mi
7:53 AM67 °FOvercast.5 mph71%29.95 "Hg10 mi
6:53 AM65 °FOvercast.No wind76%29.94 "Hg10 mi
Weather by CustomWeather, © 2016

See weather overviewHow to use our weather pages